Tracking 19242 objects as of 19-Sep-2018
HD Live streaming from Space Station
objects crossing your sky now

USA 143

Track USA 143 now!
10-day predictions
USA 143 is classified as:


NORAD ID: 25724
Int'l Code: 1999-023A
Perigee: 1,101.7 km
Apogee: 5,158.4 km
Inclination: 28.2 °
Period: 153.6 minutes
Semi major axis: 9501 km
RCS: Unknown
Launch date: April 30, 1999
Source: United States (US)
Launch site: AIR FORCE EASTERN TEST RANGE (AFETR)
aabbcc
Your satellite tracking list
Your tracking list is empty




NASA's NSSDC Master Catalog

Two Line Element Set (TLE):
1 25724U 99023A   18240.41642288 0.00000000  00000-0  00000-0 0    06
2 25724  28.2178 320.3370 2134851 233.6774 126.3221  9.37447906    00
Source of the keplerian elements: McCants